| time (UTC) | temp F | wind direction | speed MPH | gust MPH | rain 1hr in | rain 24hr in | rain mn in | humidity % | barometer mb |
| 20260905214001 | 63 | 305 | 22.0 | 0.0 | 0.00 | 0.00 | 0.01 | 89 | 1017.6 |
| 20260905212000 | 63 | 213 | 2.0 | 0.0 | 0.00 | 0.00 | 0.01 | 90 | 1016.9 |
| 20260905210001 | 63 | 220 | 4.0 | 0.0 | 0.00 | 0.00 | 0.01 | 89 | 1016.5 |
| 20260905204000 | 63 | 215 | 11.0 | 0.0 | 0.00 | 0.00 | 0.01 | 88 | 1016.5 |
| 20260905202001 | 63 | 198 | 7.0 | 0.0 | 0.00 | 0.00 | 0.01 | 89 | 1016.5 |
| 20260905200001 | 63 | 180 | 7.0 | 0.0 | 0.00 | 0.00 | 0.01 | 88 | 1016.2 |
| 20260905194001 | 63 | 244 | 4.0 | 0.0 | 0.00 | 0.00 | 0.01 | 90 | 1015.9 |
| 20260905192000 | 63 | 164 | 4.0 | 0.0 | 0.00 | 0.00 | 0.01 | 91 | 1015.9 |
| 20260905190000 | 64 | 179 | 2.0 | 0.0 | 0.00 | 0.00 | 0.01 | 86 | 1015.9 |
| 20260905184000 | 64 | 196 | 4.0 | 0.0 | 0.00 | 0.00 | 0.01 | 85 | 1015.9 |
| 20260905182000 | 66 | 239 | 7.0 | 0.0 | 0.00 | 0.00 | 0.01 | 84 | 1015.9 |
| 20260905180001 | 66 | 228 | 0.0 | 0.0 | 0.00 | 0.00 | 0.01 | 83 | 1015.2 |
| 20260905174000 | 66 | 90 | 9.0 | 0.0 | 0.00 | 0.00 | 0.01 | 84 | 1014.9 |
| 20260905172001 | 66 | 271 | 7.0 | 0.0 | 0.00 | 0.00 | 0.01 | 82 | 1014.9 |
| 20260905170001 | 68 | 98 | 0.0 | 0.0 | 0.00 | 0.00 | 0.01 | 81 | 1014.5 |
| 20260905164000 | 70 | 195 | 9.0 | 0.0 | 0.00 | 0.00 | 0.01 | 77 | 1014.5 |
| 20260905162001 | 70 | 315 | 7.0 | 0.0 | 0.00 | 0.00 | 0.01 | 76 | 1014.5 |
| 20260905160000 | 72 | 289 | 16.0 | 0.0 | 0.00 | 0.00 | 0.01 | 74 | 1014.2 |
| 20260905154000 | 72 | 237 | 22.0 | 0.0 | 0.00 | 0.00 | 0.01 | 72 | 1014.2 |
| 20260905152001 | 75 | 241 | 9.0 | 0.0 | 0.00 | 0.00 | 0.01 | 71 | 1014.2 |
| 20260905150000 | 72 | 25 | 11.0 | 0.0 | 0.00 | 0.00 | 0.01 | 75 | 1014.2 |
| 20260905144000 | 72 | 35 | 25.0 | 0.0 | 0.00 | 0.00 | 0.01 | 75 | 1014.2 |
| 20260905142000 | 72 | 252 | 13.0 | 0.0 | 0.00 | 0.00 | 0.01 | 74 | 1014.2 |
| 20260905140000 | 73 | 246 | 16.0 | 0.0 | 0.00 | 0.00 | 0.01 | 73 | 1014.2 |
| 20260905134000 | 75 | 244 | 25.0 | 0.0 | 0.00 | 0.00 | 0.01 | 71 | 1014.2 |
| 20260905132001 | 73 | 45 | 13.0 | 0.0 | 0.00 | 0.00 | 0.01 | 79 | 1014.2 |
| 20260905130000 | 70 | 290 | 16.0 | 0.0 | 0.00 | 0.00 | 0.01 | 82 | 1014.2 |
| 20260905124000 | 73 | 250 | 13.0 | 0.0 | 0.00 | 0.00 | 0.01 | 78 | 1014.2 |
| 20260905122000 | 75 | 214 | 29.0 | 0.0 | 0.00 | 0.00 | 0.01 | 78 | 1014.2 |
| 20260905120000 | 75 | 235 | 34.0 | 0.0 | 0.00 | 0.00 | 0.01 | 76 | 1014.2 |
| 20260905114000 | 75 | 213 | 16.0 | 0.0 | 0.00 | 0.00 | 0.01 | 78 | 1014.2 |
| 20260905112000 | 73 | 288 | 16.0 | 0.0 | 0.00 | 0.00 | 0.01 | 81 | 1014.2 |
| 20260905110000 | 70 | 231 | 31.0 | 0.0 | 0.00 | 0.00 | 0.01 | 88 | 1014.2 |
| 20260905104000 | 72 | 202 | 43.0 | 0.0 | 0.00 | 0.00 | 0.01 | 84 | 1014.2 |
| 20260905102000 | 68 | 225 | 31.0 | 0.0 | 0.00 | 0.00 | 0.01 | 93 | 1014.2 |
| 20260905100000 | 66 | 196 | 16.0 | 0.0 | 0.00 | 0.00 | 0.01 | 99 | 1014.2 |
| 20260905094000 | 70 | 237 | 34.0 | 0.0 | 0.00 | 0.00 | 0.01 | 95 | 1014.2 |
| 20260905092001 | 66 | 243 | 25.0 | 0.0 | 0.00 | 0.00 | 0.01 | 99 | 1014.5 |
| 20260905090000 | 64 | 227 | 22.0 | 0.0 | 0.00 | 0.00 | 0.01 | 99 | 1014.5 |
| 20260905084000 | 63 | 204 | 13.0 | 0.0 | 0.00 | 0.00 | 0.01 | 99 | 1014.5 |
| 20260905082000 | 63 | 246 | 27.0 | 0.0 | 0.00 | 0.00 | 0.01 | 99 | 1014.5 |
| 20260905080000 | 63 | 278 | 16.0 | 0.0 | 0.00 | 0.00 | 0.01 | 99 | 1014.2 |
| 20260905074000 | 63 | 239 | 9.0 | 0.0 | 0.00 | 0.00 | 0.01 | 99 | 1014.2 |
| 20260905072000 | 63 | 289 | 4.0 | 0.0 | 0.00 | 0.00 | 0.01 | 99 | 1014.2 |
| 20260905070001 | 61 | 309 | 13.0 | 0.0 | 0.00 | 0.00 | 0.01 | 99 | 1014.2 |
| 20260905064001 | 61 | 254 | 20.0 | 0.0 | 0.00 | 0.00 | 0.01 | 99 | 1013.5 |
| 20260905062000 | 63 | 215 | 27.0 | 0.0 | 0.00 | 0.00 | 0.00 | 99 | 1013.8 |
| 20260905060000 | 63 | 235 | 18.0 | 0.0 | 0.00 | 0.00 | 0.00 | 99 | 1013.2 |
| 20260905054000 | 63 | 181 | 16.0 | 0.0 | 0.00 | 0.00 | 0.00 | 99 | 1012.5 |
| 20260905052000 | 63 | 235 | 25.0 | 0.0 | 0.00 | 0.00 | 0.00 | 99 | 1012.5 |
| 20260905050000 | 63 | 273 | 13.0 | 0.0 | 0.00 | 0.00 | 0.00 | 99 | 1012.5 |
| 20260905044000 | 63 | 240 | 18.0 | 0.0 | 0.00 | 0.00 | 0.00 | 99 | 1011.8 |
| 20260905042000 | 64 | 234 | 16.0 | 0.0 | 0.00 | 0.00 | 0.00 | 99 | 1011.5 |
| 20260905040000 | 64 | 304 | 18.0 | 0.0 | 0.00 | 0.00 | 0.00 | 99 | 1011.5 |
| 20260905034000 | 64 | 211 | 16.0 | 0.0 | 0.00 | 0.00 | 0.00 | 99 | 1011.5 |
| 20260905032000 | 63 | 254 | 18.0 | 0.0 | 0.00 | 0.00 | 0.00 | 99 | 1011.5 |
| 20260905030000 | 63 | 225 | 22.0 | 0.0 | 0.00 | 0.00 | 0.00 | 99 | 1011.5 |
| 20260905024001 | 63 | 258 | 16.0 | 0.0 | 0.00 | 0.00 | 0.00 | 99 | 1011.5 |
| 20260905022001 | 63 | 238 | 25.0 | 0.0 | 0.00 | 0.00 | 0.00 | 99 | 1011.5 |
| 20260905020000 | 63 | 227 | 16.0 | 0.0 | 0.00 | 0.00 | 0.00 | 99 | 1011.5 |
| 20260905014000 | 63 | 240 | 9.0 | 0.0 | 0.00 | 0.00 | 0.00 | 99 | 1011.5 |
| 20260905012000 | 64 | 199 | 9.0 | 0.0 | 0.00 | 0.00 | 0.00 | 99 | 1011.5 |
| 20260905010001 | 66 | 274 | 13.0 | 0.0 | 0.00 | 0.00 | 0.00 | 99 | 1010.8 |
| 20260905004001 | 70 | 175 | 7.0 | 0.0 | 0.00 | 0.00 | 0.00 | 92 | 1009.8 |
| 20260905002000 | 70 | 277 | 7.0 | 0.0 | 0.00 | 0.00 | 0.00 | 95 | 1009.1 |
| 20260905000001 | 72 | 232 | 2.0 | 0.0 | 0.00 | 0.00 | 0.00 | 99 | 1008.8 |
| 20260904234000 | 72 | 236 | 7.0 | 0.0 | 0.00 | 0.00 | 0.00 | 99 | 1008.4 |
| 20260904232001 | 73 | 43 | 7.0 | 0.0 | 0.00 | 0.00 | 0.00 | 90 | 1007.7 |
| 20260904230000 | 77 | 265 | 20.0 | 0.0 | 0.00 | 0.00 | 0.00 | 78 | 1006.4 |
| 20260904224001 | 79 | 224 | 29.0 | 0.0 | 0.00 | 0.00 | 0.00 | 78 | 1006.4 |
| 20260904222000 | 77 | 208 | 27.0 | 0.0 | 0.00 | 0.00 | 0.00 | 78 | 1006.4 |
| 20260904220000 | 77 | 205 | 25.0 | 0.0 | 0.00 | 0.00 | 0.00 | 79 | 1006.4 |